QPF
0.02 0.04 0.04 0.04 0.02 0.01 0.01 0.01 0.01 0.01 0.00 0.01 0.01 0.01 0.01 0.00 0.01 0.01 0.01 0.02 0.02 0.03 0.04 0.05 0.06 0.07 0.07 0.07 0.07 0.07 0.05 0.03 0.02 0.03 0.03 0.04 0.04 0.04 0.04 0.05 0.05 0.04 0.04 0.05
0.02 0.03 0.02 0.02 0.02 0.02 0.02 0.02 0.01 0.01 0.00 0.01 0.01 0.01 0.01 0.01 0.01 0.01 0.01 0.02 0.03 0.03 0.04 0.05 0.05 0.06 0.07 0.07 0.07 0.07 0.06 0.04 0.03 0.02 0.02 0.02 0.02 0.02 0.02 0.03 0.03 0.03 0.03 0.02
0.02 0.01 0.01 0.01 0.02 0.02 0.02 0.02 0.02 0.01 0.01 0.01 0.02 0.02 0.01 0.01 0.01 0.01 0.01 0.02 0.04 0.04 0.04 0.04 0.05 0.05 0.07 0.07 0.06 0.06 0.07 0.05 0.04 0.02 0.02 0.02 0.02 0.01 0.02 0.02 0.02 0.02 0.02 0.02
0.01 0.01 0.01 0.01 0.02 0.02 0.02 0.01 0.02 0.02 0.02 0.02 0.03 0.03 0.01 0.01 0.01 0.01 0.01 0.02 0.02 0.04 0.05 0.04 0.04 0.05 0.05 0.06 0.05 0.05 0.05 0.05 0.05 0.04 0.03 0.01 0.01 0.01 0.01 0.01 0.01 0.01 0.02 0.02
0.01 0.01 0.01 0.02 0.01 0.02 0.02 0.01 0.02 0.03 0.04 0.03 0.02 0.04 0.02 0.00 0.01 0.01 0.02 0.01 0.01 0.02 0.04 0.05 0.05 0.04 0.04 0.05 0.04 0.03 0.04 0.04 0.04 0.03 0.03 0.03 0.02 0.02 0.01 0.01 0.01 0.01 0.01 0.02
0.01 0.01 0.01 0.02 0.01 0.02 0.02 0.03 0.03 0.04 0.07 0.07 0.02 0.03 0.02 0.01 0.02 0.01 0.01 0.01 0.01 0.01 0.02 0.03 0.05 0.05 0.05 0.04 0.04 0.04 0.03 0.03 0.03 0.03 0.03 0.03 0.02 0.02 0.02 0.02 0.01 0.01 0.02 0.02
0.00 0.01 0.02 0.02 0.02 0.02 0.04 0.07 0.08 0.09 0.09 0.05 0.02 0.02 0.03 0.02 0.02 0.02 0.02 0.01 0.00 0.00 0.00 0.01 0.02 0.03 0.04 0.03 0.03 0.03 0.03 0.03 0.03 0.03 0.03 0.02 0.02 0.01 0.01 0.01 0.02 0.02 0.02 0.02
0.00 0.01 0.02 0.02 0.02 0.03 0.04 0.06 0.06 0.05 0.03 0.03 0.03 0.04 0.04 0.03 0.02 0.02 0.01 0.01 0.00 0.00 0.00 0.00 0.01 0.02 0.03 0.03 0.02 0.02 0.02 0.02 0.02 0.03 0.03 0.02 0.01 0.02 0.02 0.01 0.01 0.01 0.02 0.01
0.01 0.01 0.01 0.02 0.01 0.02 0.03 0.04 0.05 0.05 0.03 0.03 0.04 0.03 0.03 0.02 0.02 0.02 0.01 0.01 0.01 0.00 0.00 0.00 0.01 0.01 0.01 0.02 0.02 0.02 0.01 0.01 0.01 0.02 0.02 0.02 0.02 0.02 0.02 0.01 0.01 0.01 0.01 0.02
0.02 0.01 0.01 0.01 0.01 0.01 0.02 0.03 0.05 0.07 0.06 0.04 0.03 0.03 0.03 0.03 0.03 0.03 0.02 0.02 0.01 0.01 0.00 0.00 0.01 0.01 0.01 0.01 0.02 0.01 0.01 0.01 0.01 0.01 0.01 0.02 0.02 0.01 0.01 0.01 0.01 0.01 0.01 0.01
0.01 0.02 0.01 0.01 0.02 0.02 0.02 0.03 0.04 0.05 0.06 0.05 0.04 0.04 0.04 0.04 0.04 0.03 0.03 0.03 0.03 0.02 0.02 0.01 0.01 0.02 0.02 0.02 0.02 0.02 0.01 0.01 0.01 0.01 0.01 0.01 0.01 0.02 0.02 0.01 0.01 0.01 0.01 0.01
0.01 0.02 0.02 0.01 0.01 0.01 0.01 0.02 0.03 0.04 0.04 0.04 0.04 0.04 0.04 0.04 0.04 0.04 0.03 0.03 0.03 0.03 0.03 0.02 0.02 0.02 0.03 0.03 0.02 0.02 0.02 0.01 0.01 0.01 0.01 0.01 0.01 0.01 0.02 0.02 0.01 0.02 0.02 0.02
0.03 0.02 0.02 0.01 0.01 0.01 0.02 0.01 0.02 0.03 0.04 0.03 0.03 0.05 0.04 0.04 0.03 0.03 0.03 0.03 0.03 0.03 0.03 0.03 0.03 0.03 0.03 0.03 0.03 0.03 0.03 0.02 0.02 0.02 0.01 0.01 0.01 0.01 0.01 0.03 0.03 0.03 0.02 0.02
0.02 0.02 0.01 0.02 0.02 0.02 0.02 0.01 0.01 0.02 0.03 0.03 0.03 0.03 0.03 0.02 0.03 0.03 0.03 0.03 0.03 0.03 0.03 0.03 0.03 0.04 0.04 0.03 0.04 0.04 0.03 0.03 0.03 0.03 0.02 0.01 0.01 0.01 0.01 0.01 0.03 0.03 0.02 0.02
0.01 0.02 0.01 0.01 0.02 0.01 0.01 0.01 0.01 0.02 0.02 0.03 0.03 0.02 0.03 0.03 0.03 0.04 0.04 0.03 0.03 0.03 0.03 0.03 0.03 0.03 0.03 0.03 0.04 0.04 0.04 0.04 0.03 0.03 0.03 0.02 0.02 0.01 0.01 0.01 0.01 0.03 0.03 0.02
0.01 0.02 0.01 0.01 0.02 0.01 0.01 0.01 0.01 0.02 0.02 0.02 0.02 0.03 0.03 0.03 0.03 0.02 0.03 0.03 0.04 0.03 0.03 0.03 0.03 0.03 0.03 0.02 0.03 0.03 0.04 0.04 0.04 0.03 0.03 0.03 0.02 0.02 0.01 0.01 0.01 0.01 0.03 0.03
0.01 0.01 0.01 0.01 0.01 0.01 0.02 0.02 0.02 0.02 0.02 0.02 0.03 0.03 0.03 0.03 0.03 0.03 0.03 0.04 0.04 0.04 0.03 0.03 0.03 0.03 0.03 0.02 0.02 0.02 0.03 0.04 0.04 0.03 0.03 0.02 0.02 0.02 0.01 0.01 0.01 0.01 0.02 0.03
0.01 0.01 0.01 0.01 0.01 0.02 0.02 0.02 0.02 0.02 0.02 0.02 0.03 0.03 0.03 0.03 0.03 0.03 0.04 0.04 0.04 0.03 0.03 0.03 0.03 0.03 0.03 0.02 0.01 0.01 0.02 0.03 0.03 0.03 0.02 0.02 0.02 0.01 0.01 0.01 0.01 0.01 0.01 0.01
0.01 0.01 0.02 0.01 0.01 0.01 0.01 0.01 0.02 0.02 0.02 0.02 0.02 0.02 0.02 0.03 0.02 0.02 0.03 0.03 0.04 0.04 0.03 0.03 0.04 0.03 0.03 0.03 0.02 0.01 0.02 0.02 0.03 0.03 0.02 0.02 0.02 0.02 0.01 0.02 0.02 0.01 0.01 0.01
0.01 0.01 0.02 0.01 0.01 0.01 0.01 0.01 0.01 0.02 0.02 0.01 0.02 0.02 0.02 0.02 0.02 0.02 0.02 0.02 0.02 0.03 0.03 0.03 0.05 0.04 0.03 0.02 0.02 0.02 0.02 0.02 0.02 0.03 0.02 0.02 0.03 0.03 0.02 0.02 0.02 0.01 0.01 0.01
0.01 0.01 0.01 0.01 0.01 0.01 0.01 0.01 0.00 0.01 0.02 0.01 0.02 0.02 0.03 0.03 0.03 0.02 0.02 0.02 0.02 0.03 0.02 0.02 0.04 0.05 0.03 0.03 0.03 0.02 0.02 0.02 0.03 0.03 0.02 0.02 0.02 0.03 0.03 0.02 0.02 0.02 0.01 0.01
0.01 0.01 0.01 0.01 0.01 0.01 0.01 0.01 0.02 0.02 0.01 0.01 0.01 0.02 0.03 0.02 0.02 0.02 0.01 0.02 0.02 0.03 0.03 0.02 0.04 0.05 0.03 0.03 0.04 0.03 0.02 0.02 0.03 0.04 0.03 0.02 0.01 0.02 0.03 0.03 0.03 0.03 0.03 0.02
0.01 0.01 0.01 0.01 0.01 0.02 0.01 0.02 0.02 0.02 0.02 0.01 0.02 0.03 0.03 0.02 0.01 0.01 0.01 0.02 0.02 0.03 0.03 0.02 0.03 0.04 0.03 0.02 0.04 0.04 0.03 0.03 0.03 0.04 0.04 0.02 0.02 0.01 0.02 0.03 0.04 0.04 0.04 0.03
0.00 0.00 0.01 0.01 0.01 0.01 0.01 0.01 0.01 0.02 0.02 0.02 0.02 0.04 0.04 0.03 0.02 0.01 0.01 0.02 0.03 0.03 0.04 0.03 0.03 0.03 0.03 0.02 0.03 0.03 0.03 0.03 0.03 0.03 0.04 0.03 0.02 0.02 0.02 0.02 0.03 0.04 0.04 0.03
0.00 0.00 0.00 0.00 0.01 0.00 0.00 0.01 0.01 0.01 0.01 0.01 0.02 0.02 0.03 0.04 0.03 0.02 0.02 0.02 0.03 0.03 0.03 0.03 0.03 0.03 0.03 0.03 0.03 0.03 0.03 0.03 0.03 0.03 0.03 0.03 0.03 0.03 0.02 0.02 0.03 0.03 0.03 0.04
0.00 0.01 0.01 0.00 0.01 0.01 0.01 0.01 0.01 0.01 0.01 0.01 0.01 0.02 0.02 0.03 0.04 0.04 0.03 0.03 0.03 0.03 0.03 0.03 0.03 0.03 0.04 0.03 0.03 0.03 0.03 0.03 0.03 0.03 0.03 0.03 0.03 0.03 0.03 0.03 0.03 0.04 0.03 0.03
MSLP
1020.72 1020.38 1020.04 1019.64 1019.14 1018.50 1017.69 1016.74 1015.66 1014.52 1013.34 1012.19 1011.08 1010.04 1009.08 1008.22 1007.45 1006.79 1006.25 1005.84 1005.57 1005.45 1005.48 1005.65 1005.93 1006.30 1006.73 1007.21 1007.72 1008.27 1008.86 1009.49 1010.16 1010.89 1011.64 1012.41 1013.16 1013.89 1014.57 1015.20 1015.79 1016.36 1016.92 1017.52
1021.16 1020.76 1020.31 1019.77 1019.09 1018.24 1017.25 1016.14 1014.97 1013.79 1012.67 1011.63 1010.68 1009.83 1009.05 1008.32 1007.64 1006.98 1006.38 1005.84 1005.41 1005.12 1005.00 1005.05 1005.28 1005.65 1006.14 1006.73 1007.36 1008.03 1008.72 1009.41 1010.12 1010.84 1011.56 1012.28 1012.99 1013.68 1014.35 1014.99 1015.60 1016.20 1016.79 1017.40
1021.71 1021.19 1020.59 1019.85 1018.95 1017.88 1016.70 1015.45 1014.23 1013.11 1012.12 1011.29 1010.62 1010.05 1009.54 1009.03 1008.48 1007.86 1007.19 1006.51 1005.87 1005.35 1004.99 1004.85 1004.93 1005.22 1005.69 1006.30 1006.99 1007.72 1008.47 1009.20 1009.92 1010.61 1011.30 1011.99 1012.67 1013.35 1014.01 1014.67 1015.31 1015.94 1016.56 1017.18
1022.33 1021.69 1020.90 1019.95 1018.81 1017.54 1016.20 1014.87 1013.66 1012.65 1011.88 1011.36 1011.03 1010.83 1010.65 1010.40 1010.02 1009.46 1008.75 1007.92 1007.06 1006.27 1005.64 1005.23 1005.09 1005.21 1005.57 1006.11 1006.76 1007.48 1008.21 1008.92 1009.61 1010.27 1010.92 1011.57 1012.23 1012.90 1013.58 1014.27 1014.94 1015.60 1016.24 1016.86
1023.02 1022.24 1021.28 1020.13 1018.80 1017.36 1015.90 1014.55 1013.42 1012.58 1012.08 1011.89 1011.95 1012.13 1012.31 1012.36 1012.16 1011.69 1010.95 1010.00 1008.94 1007.88 1006.97 1006.28 1005.87 1005.76 1005.92 1006.30 1006.83 1007.44 1008.07 1008.70 1009.31 1009.90 1010.49 1011.10 1011.73 1012.41 1013.11 1013.82 1014.52 1015.20 1015.86 1016.47
1023.74 1022.85 1021.75 1020.45 1018.98 1017.44 1015.94 1014.62 1013.60 1012.97 1012.75 1012.90 1013.32 1013.87 1014.38 1014.69 1014.69 1014.32 1013.58 1012.55 1011.32 1010.06 1008.89 1007.94 1007.27 1006.90 1006.82 1006.97 1007.30 1007.72 1008.18 1008.65 1009.12 1009.60 1010.10 1010.65 1011.26 1011.92 1012.64 1013.37 1014.10 1014.79 1015.44 1016.04
1024.48 1023.52 1022.34 1020.96 1019.43 1017.86 1016.38 1015.14 1014.27 1013.84 1013.88 1014.31 1015.02 1015.86 1016.63 1017.16 1017.31 1017.03 1016.32 1015.25 1013.94 1012.54 1011.20 1010.05 1009.15 1008.55 1008.22 1008.13 1008.20 1008.37 1008.60 1008.86 1009.14 1009.46 1009.84 1010.30 1010.86 1011.51 1012.21 1012.96 1013.69 1014.38 1015.01 1015.59
1025.24 1024.26 1023.06 1021.67 1020.16 1018.63 1017.24 1016.12 1015.41 1015.16 1015.38 1016.01 1016.91 1017.91 1018.83 1019.48 1019.72 1019.51 1018.84 1017.78 1016.46 1015.02 1013.61 1012.35 1011.31 1010.53 1010.00 1009.66 1009.48 1009.39 1009.35 1009.36 1009.41 1009.53 1009.76 1010.11 1010.59 1011.19 1011.87 1012.59 1013.31 1013.98 1014.58 1015.12
1026.01 1025.05 1023.90 1022.58 1021.16 1019.75 1018.49 1017.52 1016.95 1016.83 1017.16 1017.87 1018.83 1019.86 1020.79 1021.44 1021.70 1021.51 1020.87 1019.86 1018.59 1017.20 1015.82 1014.55 1013.48 1012.61 1011.93 1011.42 1011.01 1010.66 1010.36 1010.11 1009.92 1009.83 1009.88 1010.09 1010.46 1010.98 1011.60 1012.28 1012.96 1013.59 1014.15 1014.64
1026.77 1025.89 1024.84 1023.65 1022.38 1021.15 1020.07 1019.25 1018.80 1018.76 1019.12 1019.80 1020.67 1021.60 1022.41 1022.95 1023.13 1022.89 1022.27 1021.32 1020.15 1018.87 1017.61 1016.44 1015.42 1014.56 1013.83 1013.20 1012.62 1012.07 1011.54 1011.04 1010.62 1010.32 1010.18 1010.22 1010.46 1010.88 1011.41 1012.02 1012.63 1013.20 1013.70 1014.14
1027.50 1026.73 1025.82 1024.81 1023.76 1022.73 1021.85 1021.20 1020.85 1020.84 1021.14 1021.70 1022.39 1023.09 1023.67 1024.00 1024.01 1023.68 1023.03 1022.13 1021.07 1019.95 1018.86 1017.87 1016.98 1016.21 1015.51 1014.84 1014.17 1013.48 1012.77 1012.08 1011.45 1010.95 1010.63 1010.50 1010.59 1010.87 1011.30 1011.80 1012.32 1012.82 1013.26 1013.64
1028.18 1027.53 1026.79 1025.98 1025.15 1024.36 1023.68 1023.19 1022.94 1022.93 1023.15 1023.52 1023.97 1024.38 1024.66 1024.71 1024.50 1024.02 1023.32 1022.44 1021.49 1020.54 1019.64 1018.84 1018.13 1017.49 1016.88 1016.24 1015.54 1014.78 1013.96 1013.13 1012.34 1011.68 1011.18 1010.89 1010.82 1010.96 1011.24 1011.63 1012.05 1012.46 1012.83 1013.16
1028.76 1028.23 1027.66 1027.06 1026.46 1025.90 1025.44 1025.11 1024.94 1024.92 1025.04 1025.24 1025.43 1025.54 1025.50 1025.26 1024.81 1024.16 1023.37 1022.50 1021.63 1020.81 1020.09 1019.47 1018.94 1018.45 1017.95 1017.38 1016.70 1015.92 1015.04 1014.12 1013.23 1012.43 1011.79 1011.36 1011.13 1011.11 1011.26 1011.51 1011.82 1012.14 1012.44 1012.72
1029.22 1028.80 1028.39 1027.98 1027.59 1027.24 1026.97 1026.79 1026.71 1026.71 1026.76 1026.79 1026.76 1026.61 1026.30 1025.80 1025.12 1024.32 1023.44 1022.55 1021.72 1020.99 1020.40 1019.93 1019.54 1019.17 1018.77 1018.28 1017.65 1016.89 1016.00 1015.04 1014.08 1013.19 1012.44 1011.87 1011.50 1011.32 1011.32 1011.44 1011.63 1011.86 1012.10 1012.33
1029.56 1029.23 1028.94 1028.68 1028.46 1028.30 1028.20 1028.16 1028.17 1028.20 1028.21 1028.15 1027.97 1027.63 1027.12 1026.43 1025.59 1024.66 1023.70 1022.78 1021.96 1021.28 1020.76 1020.36 1020.06 1019.77 1019.44 1019.00 1018.43 1017.69 1016.81 1015.85 1014.86 1013.91 1013.07 1012.39 1011.89 1011.58 1011.43 1011.42 1011.49 1011.63 1011.80 1012.00
1029.81 1029.54 1029.32 1029.17 1029.08 1029.05 1029.08 1029.16 1029.27 1029.35 1029.36 1029.27 1029.02 1028.59 1027.98 1027.18 1026.25 1025.25 1024.24 1023.30 1022.47 1021.80 1021.28 1020.90 1020.61 1020.34 1020.03 1019.61 1019.06 1018.35 1017.49 1016.53 1015.53 1014.55 1013.65 1012.88 1012.27 1011.83 1011.55 1011.41 1011.38 1011.43 1011.54 1011.71
1030.04 1029.79 1029.61 1029.51 1029.48 1029.54 1029.66 1029.83 1030.00 1030.14 1030.20 1030.12 1029.88 1029.45 1028.82 1028.01 1027.07 1026.06 1025.05 1024.09 1023.24 1022.54 1021.99 1021.56 1021.22 1020.91 1020.56 1020.12 1019.56 1018.86 1018.02 1017.08 1016.08 1015.08 1014.14 1013.30 1012.60 1012.05 1011.65 1011.39 1011.26 1011.23 1011.29 1011.43
1030.32 1030.07 1029.88 1029.78 1029.77 1029.85 1030.01 1030.22 1030.44 1030.63 1030.74 1030.72 1030.53 1030.15 1029.58 1028.83 1027.95 1026.98 1026.00 1025.05 1024.18 1023.43 1022.81 1022.30 1021.87 1021.46 1021.04 1020.54 1019.94 1019.22 1018.39 1017.45 1016.47 1015.47 1014.50 1013.61 1012.83 1012.19 1011.69 1011.34 1011.12 1011.02 1011.03 1011.14
1030.73 1030.44 1030.23 1030.10 1030.06 1030.12 1030.27 1030.48 1030.71 1030.92 1031.06 1031.09 1030.97 1030.68 1030.20 1029.55 1028.75 1027.87 1026.93 1026.01 1025.13 1024.33 1023.63 1023.02 1022.46 1021.94 1021.41 1020.83 1020.17 1019.43 1018.58 1017.66 1016.68 1015.68 1014.70 1013.79 1012.96 1012.24 1011.67 1011.23 1010.94 1010.79 1010.76 1010.85
1031.27 1030.95 1030.70 1030.52 1030.43 1030.44 1030.54 1030.71 1030.92 1031.12 1031.27 1031.33 1031.26 1031.04 1030.65 1030.10 1029.40 1028.60 1027.73 1026.83 1025.95 1025.11 1024.33 1023.60 1022.93 1022.29 1021.64 1020.98 1020.26 1019.47 1018.62 1017.70 1016.73 1015.75 1014.77 1013.84 1012.98 1012.22 1011.59 1011.09 1010.75 1010.55 1010.49 1010.57
1031.89 1031.56 1031.28 1031.06 1030.93 1030.88 1030.92 1031.03 1031.18 1031.34 1031.46 1031.52 1031.47 1031.28 1030.96 1030.48 1029.86 1029.12 1028.31 1027.44 1026.55 1025.67 1024.82 1024.01 1023.23 1022.48 1021.73 1020.98 1020.20 1019.39 1018.52 1017.60 1016.66 1015.69 1014.73 1013.80 1012.93 1012.15 1011.49 1010.96 1010.58 1010.35 1010.27 1010.34
1032.50 1032.19 1031.90 1031.67 1031.51 1031.43 1031.41 1031.46 1031.55 1031.65 1031.72 1031.73 1031.66 1031.48 1031.17 1030.72 1030.15 1029.46 1028.67 1027.82 1026.93 1026.02 1025.11 1024.23 1023.36 1022.53 1021.70 1020.89 1020.06 1019.22 1018.34 1017.44 1016.51 1015.57 1014.63 1013.72 1012.86 1012.08 1011.41 1010.87 1010.48 1010.24 1010.15 1010.21
1032.97 1032.69 1032.44 1032.24 1032.09 1032.00 1031.97 1031.98 1032.02 1032.06 1032.07 1032.03 1031.91 1031.69 1031.37 1030.92 1030.35 1029.67 1028.89 1028.04 1027.14 1026.20 1025.26 1024.32 1023.40 1022.50 1021.62 1020.76 1019.90 1019.04 1018.16 1017.27 1016.36 1015.45 1014.54 1013.66 1012.82 1012.06 1011.41 1010.88 1010.49 1010.25 1010.17 1010.24
1033.16 1032.96 1032.78 1032.65 1032.56 1032.51 1032.50 1032.51 1032.53 1032.53 1032.49 1032.40 1032.23 1031.97 1031.60 1031.12 1030.53 1029.84 1029.06 1028.20 1027.28 1026.33 1025.36 1024.39 1023.43 1022.49 1021.57 1020.67 1019.79 1018.91 1018.04 1017.15 1016.26 1015.37 1014.50 1013.64 1012.84 1012.12 1011.49 1010.99 1010.63 1010.41 1010.35 1010.43
1032.98 1032.88 1032.82 1032.79 1032.80 1032.83 1032.89 1032.94 1032.98 1032.98 1032.93 1032.81 1032.60 1032.30 1031.90 1031.39 1030.78 1030.07 1029.28 1028.40 1027.48 1026.51 1025.52 1024.53 1023.54 1022.57 1021.62 1020.70 1019.79 1018.90 1018.01 1017.12 1016.24 1015.36 1014.51 1013.69 1012.92 1012.24 1011.65 1011.20 1010.88 1010.70 1010.67 1010.77
1032.45 1032.45 1032.50 1032.60 1032.73 1032.88 1033.04 1033.18 1033.28 1033.32 1033.29 1033.18 1032.98 1032.67 1032.26 1031.74 1031.12 1030.40 1029.60 1028.72 1027.79 1026.82 1025.82 1024.81 1023.80 1022.81 1021.83 1020.87 1019.93 1019.00 1018.09 1017.18 1016.28 1015.41 1014.56 1013.76 1013.02 1012.38 1011.85 1011.44 1011.18 1011.06 1011.08 1011.22
Thickness
5460 5460 5459 5462 5466 5472 5475 5478 5484 5490 5491 5491 5495 5500 5506 5513 5522 5532 5540 5548 5555 5561 5567 5572 5577 5583 5588 5592 5597 5601 5603 5607 5609 5613 5616 5618 5621 5622 5624 5626 5628 5630 5632 5634
5449 5443 5445 5448 5450 5453 5459 5463 5468 5472 5475 5477 5481 5485 5493 5499 5506 5515 5523 5531 5539 5546 5553 5558 5564 5569 5575 5580 5585 5589 5593 5596 5600 5603 5607 5610 5612 5614 5616 5618 5620 5622 5624 5626
5430 5428 5431 5433 5435 5438 5443 5449 5454 5456 5459 5463 5467 5474 5480 5487 5492 5499 5507 5516 5524 5532 5539 5545 5551 5557 5563 5568 5573 5578 5581 5586 5590 5593 5596 5599 5602 5604 5606 5609 5611 5613 5616 5618
5418 5418 5419 5421 5422 5423 5432 5438 5441 5444 5446 5454 5456 5467 5473 5476 5481 5486 5494 5501 5508 5515 5523 5530 5537 5544 5550 5556 5561 5566 5571 5575 5579 5582 5587 5592 5595 5598 5600 5602 5604 5606 5608 5610
5406 5404 5407 5408 5410 5412 5419 5424 5429 5434 5437 5440 5446 5450 5464 5462 5466 5473 5479 5487 5493 5499 5507 5514 5522 5530 5537 5543 5549 5555 5559 5564 5568 5573 5578 5582 5585 5589 5592 5593 5596 5599 5601 5602
5397 5396 5394 5397 5403 5406 5409 5416 5424 5427 5429 5427 5438 5442 5450 5449 5452 5459 5462 5468 5475 5482 5490 5499 5506 5514 5522 5529 5536 5542 5548 5553 5558 5563 5567 5572 5576 5579 5582 5585 5588 5590 5593 5595
5392 5391 5388 5388 5394 5401 5401 5407 5417 5420 5423 5430 5432 5429 5428 5427 5430 5437 5443 5449 5457 5466 5474 5483 5491 5498 5507 5515 5522 5529 5536 5541 5546 5552 5557 5562 5566 5570 5573 5576 5579 5581 5584 5587
5376 5382 5377 5376 5377 5381 5386 5392 5401 5410 5421 5426 5416 5417 5414 5406 5410 5417 5424 5432 5440 5449 5458 5467 5475 5484 5493 5501 5509 5516 5523 5528 5534 5540 5546 5551 5555 5559 5564 5567 5570 5573 5576 5578
5357 5366 5367 5365 5367 5371 5375 5379 5379 5387 5397 5402 5409 5404 5398 5395 5398 5403 5410 5416 5424 5433 5442 5451 5460 5469 5479 5488 5495 5503 5510 5517 5522 5528 5533 5539 5544 5549 5553 5557 5560 5563 5566 5569
5340 5347 5359 5357 5361 5362 5363 5365 5371 5377 5390 5400 5402 5394 5390 5380 5383 5388 5394 5400 5409 5418 5427 5437 5447 5455 5464 5473 5482 5490 5497 5504 5510 5516 5522 5527 5533 5538 5542 5546 5550 5553 5557 5559
5334 5336 5349 5351 5346 5348 5350 5351 5352 5361 5370 5386 5390 5384 5360 5359 5364 5371 5377 5385 5394 5402 5412 5422 5432 5442 5450 5459 5468 5476 5484 5491 5497 5503 5510 5515 5521 5527 5531 5535 5540 5543 5546 5549
5330 5330 5338 5340 5336 5333 5336 5337 5341 5350 5354 5361 5373 5361 5345 5347 5353 5359 5365 5372 5380 5390 5398 5408 5417 5427 5436 5445 5453 5461 5471 5478 5485 5491 5497 5504 5510 5515 5520 5524 5529 5533 5536 5540
5323 5320 5333 5343 5335 5326 5323 5322 5323 5331 5340 5349 5356 5350 5339 5338 5343 5348 5354 5361 5369 5377 5386 5395 5405 5413 5422 5431 5440 5448 5456 5464 5471 5478 5485 5492 5498 5503 5509 5514 5518 5522 5526 5530
5318 5311 5314 5322 5320 5313 5311 5311 5314 5320 5330 5334 5334 5334 5331 5330 5332 5337 5343 5349 5357 5365 5374 5383 5392 5400 5408 5417 5426 5435 5443 5451 5458 5465 5473 5480 5487 5492 5498 5502 5507 5511 5515 5519
5309 5308 5302 5304 5304 5303 5302 5302 5304 5304 5310 5317 5319 5319 5319 5318 5320 5325 5332 5338 5345 5353 5361 5370 5378 5387 5396 5405 5413 5422 5431 5438 5445 5453 5460 5467 5474 5480 5486 5491 5496 5500 5504 5508
5299 5301 5298 5299 5302 5301 5298 5296 5298 5296 5297 5301 5305 5308 5307 5308 5313 5318 5323 5328 5333 5340 5348 5356 5365 5374 5383 5391 5400 5409 5418 5426 5433 5440 5447 5454 5461 5468 5474 5479 5484 5488 5493 5496
5295 5292 5297 5306 5297 5297 5299 5290 5288 5288 5287 5290 5297 5299 5299 5301 5305 5308 5312 5317 5322 5329 5337 5345 5353 5362 5370 5378 5387 5396 5405 5414 5421 5428 5435 5441 5448 5455 5462 5467 5472 5477 5481 5485
5285 5287 5290 5297 5294 5292 5294 5278 5277 5279 5281 5281 5284 5286 5287 5290 5294 5300 5304 5307 5312 5318 5326 5334 5343 5351 5359 5367 5375 5384 5393 5401 5409 5416 5423 5429 5436 5443 5449 5455 5461 5466 5470 5474
5282 5283 5288 5289 5292 5294 5287 5274 5268 5269 5277 5275 5274 5277 5280 5282 5291 5299 5298 5298 5302 5308 5315 5324 5332 5340 5349 5357 5364 5373 5382 5389 5397 5403 5410 5417 5424 5430 5436 5443 5448 5453 5457 5461
5275 5274 5281 5279 5285 5288 5287 5268 5263 5265 5275 5271 5266 5268 5271 5274 5286 5293 5290 5290 5295 5301 5307 5316 5324 5331 5339 5346 5353 5362 5370 5378 5384 5391 5397 5404 5411 5417 5423 5429 5435 5439 5444 5448
5273 5270 5269 5274 5276 5283 5270 5259 5260 5269 5273 5262 5259 5259 5261 5264 5269 5273 5276 5282 5287 5294 5300 5308 5316 5323 5329 5335 5343 5351 5359 5365 5371 5378 5385 5392 5398 5404 5410 5416 5421 5426 5431 5435
5271 5272 5264 5265 5269 5275 5258 5255 5258 5261 5255 5253 5252 5252 5253 5256 5260 5264 5268 5274 5280 5286 5293 5301 5308 5314 5320 5326 5332 5339 5346 5353 5359 5366 5373 5379 5385 5390 5396 5402 5407 5412 5417 5421
5261 5263 5266 5262 5269 5260 5252 5252 5250 5247 5247 5247 5247 5247 5247 5250 5254 5258 5262 5267 5272 5278 5284 5292 5298 5304 5310 5316 5322 5329 5335 5341 5348 5355 5361 5367 5372 5377 5383 5388 5394 5398 5403 5408
5256 5246 5249 5250 5257 5252 5247 5245 5243 5241 5240 5240 5240 5240 5241 5244 5247 5251 5256 5261 5265 5270 5277 5283 5288 5294 5301 5306 5312 5318 5324 5331 5337 5344 5349 5355 5360 5366 5371 5376 5381 5385 5390 5394
5256 5244 5245 5246 5251 5247 5246 5243 5240 5238 5236 5235 5235 5236 5237 5239 5242 5245 5249 5254 5258 5264 5269 5274 5280 5285 5291 5296 5302 5308 5314 5320 5327 5333 5339 5344 5349 5354 5358 5363 5367 5372 5377 5382
5249 5244 5249 5257 5252 5246 5247 5241 5236 5233 5232 5231 5231 5232 5234 5234 5236 5239 5243 5248 5252 5256 5261 5266 5271 5277 5282 5287 5293 5299 5304 5310 5316 5323 5328 5333 5337 5342 5347 5351 5355 5359 5363 5367